Погода в Кастаньяле

Бразилия     1°17′09″S   47°54′49″W
темп.,
°C
ветер,
м/с
пор.,
м/с
влажн.,
%
обл.,
%
осадки,
мм/ч
давл.,
гПа
погр.,
м
27 февраля, сб
сб2700:00+23св2998100 3.5 1011264
03:00+23св1699100 3.6 1009228
06:00+23всв119984 0.0 100932
09:00+26св269466 1.2 1011546
12:00+27св1589100 1.3 1011684
15:00+28ссв258365 4.9 1007858
18:00+25ссв269695 3.4 1007352
21:00+23св179998 5.4 1009322
28 февраля, вс
вс2800:00+23св1799100 0.3 1010311
03:00+23в1199100 2.1 100856
06:00+22вюв1110064 1.7 100839
09:00+26в279356 3.1 1010495
12:00+25в139589 2.1 1009239
15:00+27св249278 6.0 1006548
18:00+25ссв269736 4.9 1006252
21:00+23св189867 5.8 1008331
1 марта, пн
пн100:00+23всв1799100 0.4 1008256
03:00+23всв1499100 1.1 1006184
06:00+22вюв1199100 0.0 100752
09:00+26вюв148879 0.2 1009523
12:00+28всв238714 3.0 1008686
15:00+27св24917 7.8 1005647
18:00+25св169641 3.3 1006478
21:00+23св179871 5.4 1008263
2 марта, вт
вт200:00+23св1499100 1.5 1009137
03:00+23всв1399100 3.4 1007106
06:00+23ююв1198100 0.1 100725
09:00+26в158897 0.5 1010508
12:00+28в247497 1.2 1010979
15:00+27св259063 5.8 1007691
18:00+25св1696100 2.6 1008433
21:00+23всв1799100 3.1 1010305
3 марта, ср
ср300:00+23всв139997 0.0 1012122
03:00+22в119992 0.0 101023
06:00+22в119973 0.0 101083
09:00+26в278776 0.0 1013753
12:00+28всв268526 3.0 1012892
15:00+27св269031 8.2 1009845
18:00+25св289685 2.1 1009512
21:00+23св189986 2.9 1012366